[[{"header":{"parameterUnit":"m.s-1","parameterCategory":2,"la1":30.2991,"la2":30.254,"lo1":-89.0895,"lo2":-89.0444,"dy":0.0017,"dx":0.0017,"nx":28,"ny":28,"refTime":"2024-05-05T21:00:00:Z","depth":"0","parameterNumber":2,"parameterNumberName":"U-component_of_CURRENTS"},"data":[0,0,0,0,0,0,0,0,0,0,0,0,0,0,0,0,0,0,0,0,0,0,0,0,0,0,0,0,0,0,0,0,0,0,0,0,0,0,0,0,0,0,0,0,0,0,0,0,0,0,0,0,0,0,0,0,0,0,0.278,0.278,0,0.2841,0.2841,0.2842,0.2847,0.2847,0.2847,0.2846,0.2861,0.2862,0.2863,0,0,0,0,0,0,0,0,0,0,0,0,0,0.2662,0.2664,0.2779,0.2781,0.2782,0.2841,0.2841,0.2842,0.2847,0.2847,0.2846,0.2846,0.2861,0.2862,0.2863,0,0,0,0,0,0,0,0,0,0,0,0,0,0.2714,0.2665,0.2779,0.2794,0.2796,0.2841,0.2841,0.2842,0.2847,0.2847,0.2846,0.2846,0.2861,0.2862,0.2863,0.2881,0,0,0.2866,0.2867,0,0,0,0,0,0,0,0,0.2712,0.2718,0.2791,0.2793,0.2795,0.2839,0.2806,0.2854,0.2848,0.2825,0.2846,0.2846,0.2852,0.2854,0.2863,0.2881,0.2882,0.2867,0.2867,0.2868,0.2868,0,0,0,0,0,0,0,0.2708,0.2716,0.2801,0.2792,0.2795,0.2796,0.2802,0.2815,0.2837,0.2827,0.2828,0.284,0.2852,0.2862,0.2863,0.2882,0.2867,0.2867,0.2868,0.2869,0.2947,0.2948,0,0,0,0,0,0,0.2708,0.2713,0.2799,0.2803,0.2755,0.2799,0.2806,0.2823,0.2838,0.2841,0.284,0.284,0.286,0.2862,0.2864,0.2915,0.2868,0.2869,0.2869,0.2946,0.2947,0.2949,0,0,0,0,0,0,0.2705,0.2715,0.2796,0.2761,0.2772,0.2802,0.282,0.2824,0.2839,0.285,0.2851,0.2852,0.286,0.2862,0.2891,0.2914,0.2869,0.287,0.2944,0.2946,0.2948,0.2998,0,0,0,0,0,0,0.2702,0.2714,0.2725,0.2761,0.2774,0.283,0.2821,0.2826,0.2849,0.2849,0.2861,0.2861,0.2859,0.289,0.2893,0.2914,0.2871,0.2942,0.2945,0.2947,0.2994,0.3001,0.3007,0,0,0,0,0,0.2697,0.2715,0.2725,0.2736,0.2789,0.2831,0.2838,0.2854,0.285,0.2863,0.2877,0.2861,0.2908,0.2892,0.2895,0.2918,0.2941,0.2944,0.2947,0.2991,0.3,0.3007,0,0,0,0,0,0,0.2667,0.2719,0.273,0.2762,0.2798,0.2833,0.285,0.286,0.2881,0.2881,0.2882,0.2885,0.2918,0.2914,0.2896,0.2949,0.2921,0.2925,0.2954,0.2962,0.2968,0.2969,0.2872,0,0,0,0,0,0.2668,0.2696,0.2743,0.2768,0.2789,0.2821,0.2839,0.2853,0.2879,0.2887,0.2896,0.291,0.2934,0.2944,0.2958,0.2989,0.2993,0.3005,0.3011,0.3017,0.302,0.3054,0.3064,0.2959,0.2959,0.2959,0,0,0.266,0.2696,0.2709,0.2764,0.2792,0.2828,0.283,0.2865,0.2893,0.2886,0.2921,0.2933,0.2947,0.2983,0.2997,0.2983,0.3051,0.3021,0.3025,0.3026,0.3058,0.3069,0.3078,0.2962,0.2961,0.2961,0,0,0.2664,0.2696,0.2722,0.2758,0.281,0.2835,0.2848,0.289,0.2908,0.2947,0.2952,0.2983,0.3007,0.3031,0.3044,0.3096,0.3084,0.3097,0.3131,0.3164,0.3172,0.318,0.3205,0.3214,0.31,0.31,0.31,0,0.2652,0.2697,0.2735,0.2774,0.2806,0.284,0.2876,0.2905,0.2948,0.297,0.2961,0.3023,0.3033,0.309,0.311,0.3111,0.3123,0.3099,0.3172,0.318,0.3187,0.321,0.322,0.3103,0.3102,0.3102,0.3102,0,0.2679,0.2717,0.2739,0.2801,0.2839,0.2876,0.2928,0.2959,0.2981,0.3007,0.3063,0.3087,0.3122,0.3135,0.3139,0.32,0.319,0.3176,0.315,0.32,0.3222,0.3231,0.3107,0.3106,0.3105,0.3104,0,0,0.2642,0.2738,0.2744,0.2777,0.2858,0.2887,0.2947,0.3008,0.3046,0.3081,0.3131,0.3179,0.3188,0.3205,0.3219,0.3252,0.3315,0.3237,0.3237,0.3258,0.3386,0.3391,0.3401,0.3313,0.3314,0.3316,0.3383,0,0.2651,0.272,0.277,0.2829,0.2871,0.2928,0.2981,0.3037,0.3087,0.3141,0.3179,0.323,0.3218,0.3245,0.3275,0.3308,0.3341,0.3298,0.3337,0.3339,0.3334,0.3412,0.3343,0.3399,0.3392,0.3394,0.3395,0,0.2657,0.2709,0.2767,0.2853,0.2876,0.2909,0.2999,0.3052,0.3141,0.3187,0.3245,0.3274,0.3341,0.3317,0.3393,0.3365,0.338,0.3397,0.34,0.3392,0.3361,0.3347,0.3416,0.3354,0.3409,0.3408,0.3407,0,0.2609,0.2701,0.2744,0.2775,0.2876,0.2905,0.2957,0.3053,0.3111,0.3219,0.3263,0.3341,0.3381,0.3419,0.3461,0.343,0.3538,0.3496,0.3513,0.3513,0.3456,0.3448,0.3466,0.3547,0.3547,0.3547,0.3547,0,0.2601,0.2629,0.2719,0.274,0.2791,0.2871,0.2935,0.301,0.3119,0.318,0.327,0.3336,0.3407,0.3473,0.3494,0.3548,0.3565,0.3541,0.3542,0.3473,0.3466,0.341,0.3373,0.3549,0.3549,0.3548,0.3548,0,0.2538,0.2599,0.2646,0.274,0.2768,0.2798,0.2914,0.2959,0.3076,0.3162,0.3199,0.3343,0.3441,0.3512,0.3598,0.3591,0.3561,0.3655,0.3572,0.3563,0.3498,0.3467,0.3325,0.322,0.3676,0.3677,0.3677,0,0.2513,0.2531,0.262,0.264,0.2676,0.2741,0.2783,0.2922,0.2981,0.3158,0.3185,0.3333,0.3424,0.3576,0.3641,0.3712,0.3582,0.3655,0.3583,0.3511,0.3477,0.3296,0.3203,0.3526,0.3526,0.3525,0.3525,0,0.2461,0.2484,0.2523,0.2569,0.2605,0.2655,0.2727,0.2774,0.2925,0.3007,0.3135,0.3235,0.3436,0.3519,0.3644,0.3667,0.35,0.3644,0.3589,0.3391,0.3173,0.3067,0.3461,0.3519,0.352,0.352,0.3521,0.3521,0.2404,0.2413,0.2458,0.2486,0.2522,0.2539,0.2547,0.2641,0.272,0.2828,0.3,0.3124,0.3359,0.3551,0.3548,0.3551,0.3473,0.3475,0.3453,0.3283,0.3145,0.3535,0.3582,0.3583,0.3584,0.3585,0.3585,0,0.233,0.2348,0.2374,0.2394,0.2375,0.2434,0.2481,0.2473,0.2512,0.2701,0.2813,0.3055,0.3182,0.3336,0.348,0.34,0.3188,0.3309,0.3043,0.2968,0.3357,0.3319,0.3286,0.3286,0.3286,0.3286,0.3286,0.3286,0.2292,0.2283,0.2295,0.2238,0.224,0.2188,0.2185,0.2206,0.2318,0.2452,0.2615,0.2798,0.3137,0.3357,0.3355,0.327,0.3,0.2886,0.2822,0.3141,0.3153,0.3165,0.312,0.3046,0.3046,0.2308,0.2303,0.2299]},{"header":{"parameterUnit":"m.s-1","parameterCategory":2,"la1":30.2991,"la2":30.254,"lo1":-89.0895,"lo2":-89.0444,"dy":0.0017,"dx":0.0017,"nx":28,"ny":28,"refTime":"2024-05-05T21:00:00:Z","depth":"0","parameterNumber":3,"parameterNumberName":"V-component_of_CURRENTS"},"data":[0,0,0,0,0,0,0,0,0,0,0,0,0,0,0,0,0,0,0,0,0,0,0,0,0,0,0,0,0,0,0,0,0,0,0,0,0,0,0,0,0,0,0,0,0,0,0,0,0,0,0,0,0,0,0,0,0,0,0.0125,0.0124,0,0.0044,0.0043,0.0042,-0.0016,-0.0017,-0.0017,-0.0017,-0.0136,-0.0139,-0.0142,0,0,0,0,0,0,0,0,0,0,0,0,0,0.0177,0.0176,0.0125,0.0124,0.0123,0.0044,0.0043,0.0042,-0.0016,-0.0017,-0.0017,-0.0018,-0.0135,-0.0138,-0.0142,0,0,0,0,0,0,0,0,0,0,0,0,0,0.013,0.0176,0.0125,0.0086,0.0082,0.0045,0.0043,0.0041,-0.0016,-0.0017,-0.0017,-0.0018,-0.0134,-0.0138,-0.0142,-0.0158,0,0,-0.0155,-0.0157,0,0,0,0,0,0,0,0,0.0132,0.0128,0.0093,0.0089,0.0084,0.0025,0.0018,-0.0027,-0.0016,0.0019,-0.0017,-0.0018,-0.0084,-0.0093,-0.0108,-0.0163,-0.0168,-0.0156,-0.0158,-0.016,-0.0161,0,0,0,0,0,0,0,0.0136,0.0131,0.0092,0.0092,0.0086,0.0054,0.0047,0.0009,-0.003,0.0016,0.0012,0.0006,-0.0087,-0.0104,-0.0112,-0.017,-0.0155,-0.0159,-0.0162,-0.0164,-0.0251,-0.0251,0,0,0,0,0,0,0.0152,0.0134,0.0094,0.0089,0.0109,0.0054,0.0046,0.0043,-0.0029,-0.004,0.0006,0.0003,-0.0097,-0.0107,-0.0116,-0.0127,-0.016,-0.0164,-0.0166,-0.0252,-0.0251,-0.0251,0,0,0,0,0,0,0.0154,0.0149,0.0098,0.0111,0.0102,0.0054,0.0051,0.0042,0.0027,-0.0036,-0.0048,0.0001,-0.0097,-0.011,-0.0149,-0.0133,-0.0166,-0.017,-0.0252,-0.0252,-0.0251,-0.0157,0,0,0,0,0,0,0.0155,0.0151,0.0155,0.0112,0.0102,0.0084,0.0051,0.0041,0.0024,0.0019,-0.0045,-0.0057,-0.0099,-0.0142,-0.0153,-0.0139,-0.0173,-0.0252,-0.0252,-0.0251,-0.016,-0.0154,-0.0148,0,0,0,0,0,0.0158,0.017,0.0156,0.0151,0.011,0.0085,0.0077,0.0039,0.0024,0.0023,-0.0023,-0.0055,-0.0147,-0.0145,-0.0158,-0.0145,-0.0252,-0.0252,-0.0251,-0.0163,-0.0155,-0.0148,0,0,0,0,0,0,0.0194,0.0164,0.0148,0.015,0.0123,0.0075,0.0073,0.0047,0.001,0.0007,-0.0055,-0.007,-0.0097,-0.0137,-0.0133,-0.0171,-0.0204,-0.0206,-0.0132,-0.0125,-0.0119,-0.009,-0.0177,0,0,0,0,0,0.0206,0.0206,0.017,0.0171,0.0163,0.012,0.0106,0.0083,0.0044,0.0027,-0.0018,-0.0066,-0.0105,-0.0127,-0.0168,-0.0189,-0.0222,-0.019,-0.0184,-0.0178,-0.0164,-0.0203,-0.0198,-0.025,-0.025,-0.025,0,0,0.0219,0.0204,0.0202,0.0178,0.0156,0.0155,0.011,0.0098,0.0096,0.002,0.0004,-0.0045,-0.0106,-0.013,-0.0145,-0.0161,-0.018,-0.0177,-0.0171,-0.0161,-0.0202,-0.0197,-0.0192,-0.0249,-0.0249,-0.0249,0,0,0.0252,0.0236,0.0249,0.0233,0.021,0.0185,0.0187,0.0147,0.0128,0.0102,0.0051,0.0014,-0.0049,-0.0085,-0.0113,-0.0097,-0.0145,-0.0113,-0.0056,-0.0094,-0.0089,-0.0086,-0.0115,-0.0115,-0.0109,-0.0108,-0.0108,0,0.0271,0.0282,0.0248,0.0258,0.0257,0.0206,0.0225,0.0198,0.0149,0.0142,0.011,0.0029,-0.0025,-0.0049,-0.0046,-0.008,-0.0108,-0.0077,-0.0083,-0.008,-0.0078,-0.011,-0.0111,-0.0104,-0.0104,-0.0105,-0.0105,0,0.0312,0.0322,0.033,0.0329,0.0323,0.0329,0.0296,0.0283,0.0254,0.0226,0.0194,0.0118,0.0073,0.0047,0.0003,-0.0006,-0.0033,-0.0069,-0.0095,-0.0067,-0.0103,-0.0105,-0.0097,-0.0099,-0.01,-0.0101,0,0,0.0354,0.036,0.0363,0.0383,0.0365,0.0369,0.0368,0.0359,0.0372,0.0309,0.0313,0.0236,0.0197,0.0163,0.0102,0.0065,0.0049,0.0012,0.0008,-0.0004,-0.0027,-0.0038,-0.0042,0.0012,0.0012,0.0012,-0.0055,0,0.0398,0.0442,0.0429,0.0474,0.0498,0.0464,0.0468,0.0452,0.043,0.0418,0.0339,0.0316,0.0241,0.0223,0.0175,0.0079,0.0045,0.0071,-0.0065,-0.0068,-0.007,-0.0045,-0.0022,-0.0078,-0.0058,-0.0059,-0.0059,0,0.0444,0.0471,0.0524,0.0557,0.0565,0.0578,0.0597,0.06,0.0567,0.0548,0.051,0.0446,0.0383,0.0312,0.0177,0.0197,0.01,0.0022,0.0016,-0.0025,-0.0083,-0.0107,-0.0085,-0.0271,-0.0064,-0.0064,-0.0063,0,0.0498,0.0541,0.0591,0.06,0.062,0.0638,0.0649,0.064,0.0668,0.0639,0.0648,0.0555,0.0515,0.0381,0.0219,0.0198,0.007,0.0015,-0.0083,-0.0085,-0.0107,-0.0111,-0.0269,-0.0071,-0.0071,-0.007,-0.007,0,0.0552,0.0594,0.062,0.0647,0.0711,0.0704,0.0771,0.0762,0.0776,0.0821,0.0725,0.0736,0.053,0.0428,0.0264,0.0094,0.0103,-0.006,-0.0099,-0.0074,-0.0074,-0.0272,-0.037,-0.0073,-0.0072,-0.0072,-0.0071,0,0.0598,0.0612,0.0679,0.0719,0.0737,0.0785,0.0857,0.0906,0.0904,0.0957,0.0953,0.0875,0.0745,0.0538,0.0326,0.0168,-0.0103,-0.0069,-0.002,-0.0051,-0.0323,-0.0415,-0.0598,-0.0668,-0.019,-0.0191,-0.0191,0,0.0623,0.0659,0.0736,0.0785,0.0806,0.088,0.0931,0.0962,0.1027,0.1051,0.1082,0.0985,0.094,0.0634,0.0334,0.0056,-0.0115,-0.0106,-0.0148,-0.0323,-0.0455,-0.0525,-0.0575,-0.0144,-0.0144,-0.0144,-0.0145,0,0.0676,0.07,0.0757,0.0858,0.0927,0.1018,0.1098,0.1169,0.1207,0.1257,0.131,0.1285,0.0993,0.0729,0.0343,0.0147,-0.0224,-0.0116,-0.0316,-0.0438,-0.0507,-0.0596,-0.0117,-0.0145,-0.0145,-0.0145,-0.0145,-0.0145,0.0716,0.0767,0.0843,0.0941,0.1029,0.1143,0.1229,0.1322,0.1437,0.1521,0.1488,0.1496,0.1104,0.0588,0.0279,-0.025,-0.0256,-0.0408,-0.0506,-0.0561,-0.0627,-0.0139,-0.0201,-0.0202,-0.0202,-0.0202,-0.0202,0,0.0765,0.0827,0.0923,0.1043,0.1146,0.1183,0.133,0.1425,0.1567,0.1661,0.1713,0.1568,0.1068,0.0562,-0.0159,-0.0562,-0.07,-0.0777,-0.0885,-0.0918,-0.0502,-0.0499,-0.0605,-0.0605,-0.0605,-0.0604,-0.0604,-0.0604,0.0795,0.0891,0.0943,0.1117,0.1204,0.1346,0.1435,0.1578,0.1692,0.1836,0.1882,0.1885,0.1535,0.0188,-0.0737,-0.0954,-0.1215,-0.1282,-0.1425,-0.1166,-0.114,-0.1115,-0.1136,-0.1374,-0.1375,-0.1781,-0.1785,-0.1788]}],[{"header":{"parameterUnit":"m.s-1","parameterCategory":2,"la1":30.2991,"la2":30.254,"lo1":-89.0895,"lo2":-89.0444,"dy":0.0017,"dx":0.0017,"nx":28,"ny":28,"refTime":"2024-05-05T21:00:00:Z","depth":"2","parameterNumber":2,"parameterNumberName":"U-component_of_CURRENTS"},"data":[0,0,0,0,0,0,0,0,0,0,0,0,0,0,0,0,0,0,0,0,0,0,0,0,0,0,0,0,0,0,0,0,0,0,0,0,0,0,0,0,0,0,0,0,0,0,0,0,0,0,0,0,0,0,0,0,0,0,0.2456,0.2457,0,0.2508,0.2508,0.2509,0.2517,0.2516,0.2516,0.2515,0.2538,0.2539,0.254,0,0,0,0,0,0,0,0,0,0,0,0,0,0.2387,0.2388,0.2456,0.2457,0.2457,0.2508,0.2508,0.2509,0.2517,0.2516,0.2516,0.2515,0.2538,0.2539,0.254,0,0,0,0,0,0,0,0,0,0,0,0,0,0.2425,0.2389,0.2456,0.2468,0.2469,0.2507,0.2508,0.2509,0.2517,0.2516,0.2516,0.2515,0.2537,0.2539,0.254,0.2562,0,0,0.2545,0.2546,0,0,0,0,0,0,0,0,0.2423,0.2428,0.2465,0.2467,0.2469,0.2505,0.2492,0.2525,0.2517,0.2498,0.2515,0.2515,0.2525,0.2528,0.2539,0.2563,0.2564,0.2545,0.2546,0.2547,0.2547,0,0,0,0,0,0,0,0.242,0.2426,0.2476,0.2466,0.2468,0.2478,0.2483,0.2499,0.2514,0.25,0.2501,0.2507,0.2526,0.2537,0.2539,0.2564,0.2545,0.2546,0.2547,0.2548,0.264,0.2642,0,0,0,0,0,0,0.2415,0.2423,0.2474,0.2477,0.2445,0.248,0.2485,0.2494,0.2514,0.2517,0.2508,0.2508,0.2535,0.2537,0.254,0.26,0.2547,0.2548,0.2549,0.2639,0.2641,0.2642,0,0,0,0,0,0,0.2413,0.2419,0.2472,0.2452,0.2459,0.2482,0.2492,0.2495,0.2515,0.2521,0.2523,0.2524,0.2535,0.2538,0.2558,0.2599,0.2549,0.255,0.2637,0.2639,0.2641,0.2698,0,0,0,0,0,0,0.2411,0.2418,0.2427,0.2451,0.246,0.2496,0.2493,0.2497,0.252,0.252,0.2536,0.2537,0.2534,0.2555,0.2559,0.26,0.2551,0.2635,0.2638,0.2641,0.2695,0.2702,0.2709,0,0,0,0,0,0.2409,0.242,0.2427,0.2434,0.247,0.2497,0.2503,0.2516,0.2521,0.2531,0.2541,0.2537,0.2577,0.2558,0.2562,0.2604,0.2633,0.2637,0.264,0.2691,0.2701,0.2709,0,0,0,0,0,0,0.2393,0.2422,0.2431,0.245,0.2473,0.2498,0.2515,0.2525,0.2544,0.2549,0.2549,0.2551,0.2587,0.2586,0.2564,0.264,0.2609,0.2613,0.2646,0.2655,0.2662,0.2654,0.2552,0,0,0,0,0,0.2395,0.2413,0.244,0.2457,0.2472,0.2498,0.2513,0.2526,0.2544,0.2552,0.2563,0.2581,0.2606,0.262,0.2635,0.2673,0.2673,0.2706,0.2713,0.2719,0.2716,0.2749,0.2759,0.2654,0.2654,0.2654,0,0,0.2393,0.2414,0.2423,0.2456,0.2479,0.2506,0.2506,0.2537,0.2561,0.2552,0.2589,0.2605,0.262,0.2662,0.268,0.2666,0.2753,0.2724,0.2729,0.2722,0.2753,0.2763,0.2772,0.2656,0.2656,0.2655,0,0,0.2398,0.2421,0.2437,0.2463,0.2502,0.252,0.2532,0.2566,0.2584,0.262,0.2626,0.2657,0.2694,0.2712,0.2728,0.2784,0.2787,0.2805,0.284,0.2872,0.2881,0.2889,0.2914,0.2923,0.2812,0.2812,0.2812,0,0.2394,0.2422,0.2446,0.2474,0.25,0.2528,0.2556,0.2583,0.2618,0.2637,0.2636,0.2707,0.2717,0.2773,0.2796,0.2801,0.2819,0.2805,0.2881,0.2889,0.2895,0.2919,0.2929,0.2815,0.2815,0.2815,0.2814,0,0.2414,0.244,0.2457,0.2502,0.2532,0.2563,0.2603,0.2633,0.2662,0.2688,0.2747,0.2768,0.2807,0.283,0.2832,0.2898,0.2897,0.2884,0.2857,0.2909,0.2931,0.294,0.282,0.2819,0.2818,0.2817,0,0,0.2387,0.2455,0.2461,0.2486,0.2552,0.2574,0.2627,0.2676,0.2717,0.2756,0.2807,0.2858,0.2876,0.2894,0.2913,0.2945,0.3014,0.2944,0.2944,0.2964,0.3094,0.3078,0.3085,0.3023,0.3025,0.3026,0.3094,0,0.2394,0.2442,0.248,0.2528,0.2558,0.2609,0.2657,0.2708,0.2759,0.2814,0.2852,0.291,0.2901,0.294,0.297,0.3006,0.3038,0.2996,0.3043,0.3044,0.3019,0.3095,0.288,0.2922,0.3103,0.3104,0.3105,0,0.2396,0.2431,0.2476,0.2547,0.2566,0.2601,0.2685,0.2733,0.2818,0.2866,0.2927,0.2962,0.3027,0.3009,0.3084,0.3065,0.3083,0.31,0.3103,0.307,0.3044,0.2897,0.2931,0.3119,0.3118,0.3117,0.3116,0,0.2355,0.2425,0.2458,0.2484,0.257,0.2602,0.2651,0.2743,0.2797,0.2904,0.2955,0.3031,0.3081,0.3116,0.3157,0.3134,0.3235,0.3199,0.3196,0.3194,0.3009,0.2988,0.3244,0.3244,0.3243,0.3243,0.3243,0,0.2344,0.2368,0.2441,0.2459,0.2511,0.2581,0.265,0.272,0.2825,0.2888,0.2974,0.3038,0.3113,0.3175,0.3191,0.3235,0.3262,0.3217,0.3219,0.3025,0.3007,0.3166,0.3156,0.3246,0.3245,0.3245,0.3244,0,0.229,0.2339,0.2376,0.246,0.2491,0.2525,0.264,0.2685,0.2802,0.2888,0.2927,0.3064,0.3158,0.3221,0.3301,0.3281,0.3321,0.3323,0.3095,0.307,0.3245,0.3237,0.3321,0.3321,0.3321,0.3321,0.3322,0,0.2266,0.228,0.2358,0.2379,0.2416,0.2484,0.2529,0.266,0.2716,0.289,0.2919,0.3063,0.3144,0.3272,0.3296,0.3342,0.3355,0.314,0.3048,0.3263,0.3257,0.3249,0.3241,0.2823,0.2819,0.2816,0.2813,0,0.2217,0.2241,0.2271,0.2318,0.2358,0.2406,0.2484,0.2527,0.2672,0.2756,0.2877,0.2967,0.3127,0.3106,0.3191,0.3172,0.3118,0.3077,0.3365,0.2849,0.2802,0.2794,0.28,0.2784,0.2787,0.2789,0.2791,0.2792,0.217,0.2175,0.2212,0.2244,0.2284,0.2305,0.2314,0.2402,0.2479,0.2578,0.2734,0.2802,0.2896,0.2938,0.2876,0.284,0.3041,0.2889,0.2895,0.2905,0.2847,0.2805,0.2776,0.2779,0.2781,0.2783,0.2785,0,0.2101,0.2115,0.2138,0.216,0.2149,0.2214,0.2259,0.2247,0.2282,0.2432,0.2526,0.2405,0.2445,0.2524,0.2458,0.2487,0.2411,0.236,0.2233,0.2269,0.2298,0.2203,0.1964,0.196,0.1957,0.1954,0,0,0.2066,0.205,0.2056,0.2014,0.2029,0.1991,0.199,0.1997,0.2077,0.2095,0.2142,0.2358,0.2499,0.2192,0.218,0.2061,0.213,0.1983,0.2661,0.2551,0.2575,0.2647,0.2548,0,0,0,0,0]},{"header":{"parameterUnit":"m.s-1","parameterCategory":2,"la1":30.2991,"la2":30.254,"lo1":-89.0895,"lo2":-89.0444,"dy":0.0017,"dx":0.0017,"nx":28,"ny":28,"refTime":"2024-05-05T21:00:00:Z","depth":"2","parameterNumber":3,"parameterNumberName":"V-component_of_CURRENTS"},"data":[0,0,0,0,0,0,0,0,0,0,0,0,0,0,0,0,0,0,0,0,0,0,0,0,0,0,0,0,0,0,0,0,0,0,0,0,0,0,0,0,0,0,0,0,0,0,0,0,0,0,0,0,0,0,0,0,0,0,-0.0002,-0.0003,0,-0.0075,-0.0076,-0.0077,-0.0125,-0.0125,-0.0125,-0.0126,-0.0225,-0.0227,-0.0229,0,0,0,0,0,0,0,0,0,0,0,0,0,0.0047,0.0046,-0.0002,-0.0003,-0.0004,-0.0075,-0.0076,-0.0077,-0.0125,-0.0125,-0.0125,-0.0126,-0.0224,-0.0227,-0.023,0,0,0,0,0,0,0,0,0,0,0,0,0,0.0003,0.0046,-0.0002,-0.0035,-0.0039,-0.0075,-0.0076,-0.0077,-0.0125,-0.0125,-0.0126,-0.0126,-0.0223,-0.0226,-0.023,-0.0248,0,0,-0.0241,-0.0243,0,0,0,0,0,0,0,0,0.0006,0.0001,-0.0029,-0.0033,-0.0037,-0.009,-0.0095,-0.0135,-0.0125,-0.0094,-0.0126,-0.0126,-0.0181,-0.0188,-0.0203,-0.0253,-0.0257,-0.0242,-0.0244,-0.0246,-0.0247,0,0,0,0,0,0,0,0.0009,0.0004,-0.0033,-0.003,-0.0035,-0.0063,-0.0069,-0.0103,-0.0137,-0.0097,-0.01,-0.0105,-0.0183,-0.0199,-0.0206,-0.0258,-0.0242,-0.0245,-0.0247,-0.0249,-0.0326,-0.0326,0,0,0,0,0,0,0.0024,0.0007,-0.003,-0.0035,-0.0014,-0.0063,-0.007,-0.0074,-0.0136,-0.0145,-0.0105,-0.0107,-0.0193,-0.0201,-0.0209,-0.0219,-0.0246,-0.0249,-0.0251,-0.0326,-0.0326,-0.0326,0,0,0,0,0,0,0.0026,0.0022,-0.0028,-0.0014,-0.0022,-0.0063,-0.0067,-0.0075,-0.0089,-0.0142,-0.0152,-0.011,-0.0193,-0.0204,-0.0235,-0.0224,-0.0251,-0.0254,-0.0326,-0.0326,-0.0326,-0.0248,0,0,0,0,0,0,0.0027,0.0023,0.0026,-0.0013,-0.0022,-0.004,-0.0067,-0.0076,-0.0091,-0.0095,-0.0149,-0.0159,-0.0194,-0.0229,-0.0238,-0.0229,-0.0257,-0.0327,-0.0326,-0.0326,-0.0251,-0.0245,-0.024,0,0,0,0,0,0.0029,0.0037,0.0026,0.0022,-0.0017,-0.004,-0.0047,-0.0079,-0.009,-0.0093,-0.0129,-0.0157,-0.0233,-0.0231,-0.0243,-0.0235,-0.0327,-0.0326,-0.0326,-0.0253,-0.0246,-0.0241,0,0,0,0,0,0,0.0061,0.0032,0.0019,0.0018,-0.0005,-0.0047,-0.005,-0.0072,-0.0103,-0.0104,-0.0156,-0.0168,-0.0191,-0.0225,-0.0222,-0.0257,-0.0284,-0.0286,-0.0225,-0.0219,-0.0214,-0.019,-0.026,0,0,0,0,0,0.007,0.0069,0.0036,0.0036,0.0028,-0.0009,-0.0022,-0.0041,-0.0074,-0.0088,-0.0126,-0.0166,-0.0199,-0.0217,-0.0253,-0.0272,-0.0302,-0.0275,-0.027,-0.0265,-0.0254,-0.0292,-0.0289,-0.0325,-0.0325,-0.0325,0,0,0.0082,0.0067,0.0066,0.0043,0.0023,0.0021,-0.0018,-0.0028,-0.0031,-0.0093,-0.0108,-0.0149,-0.0201,-0.0222,-0.0235,-0.0247,-0.0271,-0.0265,-0.026,-0.0251,-0.0291,-0.0288,-0.0285,-0.0324,-0.0324,-0.0324,0,0,0.0111,0.0095,0.0104,0.009,0.0069,0.0048,0.0049,0.0013,-0.0004,-0.0025,-0.0069,-0.0101,-0.0154,-0.0186,-0.021,-0.0198,-0.0242,-0.0211,-0.0164,-0.0201,-0.0199,-0.0196,-0.0226,-0.0227,-0.0208,-0.0208,-0.0207,0,0.0128,0.0134,0.0104,0.011,0.0109,0.0066,0.0081,0.0056,0.0014,0.0007,-0.0018,-0.009,-0.0136,-0.0159,-0.0156,-0.0185,-0.0211,-0.0181,-0.0193,-0.0192,-0.0191,-0.0222,-0.0224,-0.0204,-0.0204,-0.0205,-0.0205,0,0.0161,0.0168,0.0174,0.0171,0.0165,0.017,0.014,0.0127,0.0102,0.0077,0.0048,-0.0018,-0.0057,-0.008,-0.0116,-0.0129,-0.0151,-0.0181,-0.0204,-0.0182,-0.0217,-0.022,-0.0198,-0.02,-0.0201,-0.0202,0,0,0.0197,0.0199,0.0201,0.0217,0.0201,0.0203,0.0202,0.0191,0.02,0.0146,0.0147,0.0079,0.0046,0.0016,-0.0036,-0.0072,-0.0093,-0.0115,-0.0119,-0.0134,-0.0168,-0.018,-0.0186,-0.0124,-0.0124,-0.0124,-0.0193,0,0.0235,0.0268,0.0256,0.0293,0.0312,0.0282,0.0286,0.027,0.025,0.0237,0.0166,0.0146,0.0082,0.0068,0.0021,-0.0064,-0.0099,-0.0071,-0.0196,-0.0199,-0.0204,-0.0189,-0.0158,-0.0215,-0.0197,-0.0197,-0.0198,0,0.0272,0.0292,0.0335,0.0363,0.0368,0.0381,0.0395,0.0398,0.0367,0.0349,0.0314,0.0258,0.0199,0.0139,0.0013,0.0035,-0.0053,-0.0125,-0.013,-0.0169,-0.0218,-0.0237,-0.0223,-0.0204,-0.0204,-0.0203,-0.0203,0,0.0318,0.0351,0.0391,0.0399,0.0415,0.0431,0.0442,0.0433,0.0457,0.0428,0.0437,0.0349,0.0313,0.0192,0.0044,0.0029,-0.0097,-0.0141,-0.0235,-0.0237,-0.0248,-0.025,-0.0225,-0.0225,-0.0225,-0.0225,-0.0225,0,0.0362,0.0397,0.0417,0.044,0.0497,0.0489,0.0548,0.0542,0.0553,0.0592,0.0506,0.0511,0.0325,0.0228,0.008,-0.0079,-0.0071,-0.0217,-0.0253,-0.022,-0.0219,-0.0242,-0.0243,-0.0227,-0.0227,-0.0226,-0.0226,0,0.0403,0.0413,0.0468,0.0501,0.052,0.0562,0.0628,0.0669,0.0669,0.0716,0.0713,0.0635,0.0508,0.0319,0.0121,-0.0019,-0.018,-0.0239,-0.0183,-0.0211,-0.0305,-0.0302,-0.0352,-0.0353,-0.0354,-0.0354,-0.0355,0,0.0424,0.0454,0.0519,0.0563,0.0583,0.0648,0.0695,0.0723,0.0779,0.0797,0.0825,0.0726,0.0672,0.0382,0.0115,-0.0139,-0.0175,-0.0274,-0.0303,-0.0287,-0.0317,-0.0312,-0.0308,-0.029,-0.029,-0.029,-0.029,0,0.0469,0.0488,0.0535,0.0627,0.069,0.0771,0.0845,0.0905,0.0939,0.0982,0.1018,0.098,0.0705,0.0455,0.0105,-0.0064,-0.0234,-0.0282,-0.0281,-0.0258,-0.0233,-0.0261,-0.0258,-0.0289,-0.029,-0.029,-0.029,-0.029,0.0503,0.0544,0.0608,0.0697,0.0779,0.088,0.0955,0.1035,0.1133,0.1199,0.1162,0.1124,0.0825,0.0393,0.0078,-0.0244,-0.0235,-0.034,-0.0339,-0.0337,-0.0314,-0.0291,-0.0353,-0.0354,-0.0354,-0.0354,-0.0355,0,0.0542,0.0592,0.0676,0.0782,0.0876,0.0917,0.1046,0.1122,0.1239,0.1304,0.1336,0.1086,0.0799,0.0461,-0.0023,-0.0315,-0.0337,-0.0395,-0.036,-0.0358,-0.0356,-0.0333,-0.0378,-0.0379,-0.038,-0.0381,0,0,0.0564,0.0642,0.0684,0.084,0.0925,0.1057,0.1136,0.1248,0.1332,0.1402,0.14,0.1344,0.0929,0.058,0.0173,-0.0105,-0.0159,-0.0152,-0.0099,-0.0007,-0.0002,-0.0289,-0.0245,0,0,0,0,0]}],[{"header":{"parameterUnit":"m.s-1","parameterCategory":2,"la1":30.2991,"la2":30.254,"lo1":-89.0895,"lo2":-89.0444,"dy":0.0017,"dx":0.0017,"nx":28,"ny":28,"refTime":"2024-05-05T21:00:00:Z","depth":"4","parameterNumber":2,"parameterNumberName":"U-component_of_CURRENTS"},"data":[0,0,0,0,0,0,0,0,0,0,0,0,0,0,0,0,0,0,0,0,0,0,0,0,0,0,0,0,0,0,0,0,0,0,0,0,0,0,0,0,0,0,0,0,0,0,0,0,0,0,0,0,0,0,0,0,0,0,0.1545,0.1545,0,0.1585,0.1585,0.1585,0.1639,0.164,0.1641,0.1642,0.1706,0.1706,0.1707,0,0,0,0,0,0,0,0,0,0,0,0,0,0.1497,0.1498,0.1545,0.1545,0.1546,0.1585,0.1585,0.1585,0.1639,0.164,0.1641,0.1643,0.1705,0.1706,0.1707,0,0,0,0,0,0,0,0,0,0,0,0,0,0.1524,0.1498,0.1545,0.1579,0.1582,0.1584,0.1585,0.1585,0.1639,0.164,0.1642,0.1643,0.1705,0.1706,0.1707,0.1682,0,0,0.171,0.1711,0,0,0,0,0,0,0,0,0.1522,0.1525,0.1573,0.1576,0.158,0.161,0.1592,0.1619,0.1638,0.1615,0.1642,0.1644,0.1676,0.1679,0.1681,0.1685,0.1688,0.1711,0.1711,0.1712,0.1712,0,0,0,0,0,0,0,0.152,0.1524,0.1559,0.1574,0.1578,0.1586,0.1591,0.1597,0.1635,0.1618,0.1622,0.1629,0.1678,0.1679,0.1683,0.1689,0.1711,0.1711,0.1712,0.1713,0.18,0.1802,0,0,0,0,0,0,0.1518,0.1522,0.1558,0.156,0.1556,0.1586,0.1592,0.1597,0.1635,0.1642,0.1627,0.1631,0.1677,0.1681,0.1685,0.1764,0.1712,0.1713,0.1713,0.1799,0.1801,0.1803,0,0,0,0,0,0,0.1517,0.1521,0.1556,0.1543,0.1549,0.1585,0.1591,0.1597,0.1637,0.1642,0.165,0.1664,0.1678,0.1684,0.1725,0.1763,0.1713,0.1714,0.1797,0.1799,0.1802,0.1853,0,0,0,0,0,0,0.1515,0.152,0.1538,0.1543,0.155,0.1582,0.159,0.1597,0.1637,0.1643,0.1676,0.1681,0.168,0.1723,0.1726,0.1763,0.1715,0.1795,0.1798,0.1801,0.1849,0.1857,0.1863,0,0,0,0,0,0.1513,0.1527,0.1539,0.1544,0.1568,0.1584,0.1588,0.1617,0.1637,0.1658,0.1684,0.1682,0.1746,0.1725,0.1728,0.1766,0.1793,0.1797,0.1801,0.1846,0.1855,0.1863,0,0,0,0,0,0,0.152,0.1534,0.1547,0.1567,0.1587,0.1594,0.1619,0.1635,0.167,0.1689,0.1695,0.1702,0.1755,0.1752,0.1729,0.1803,0.1773,0.1777,0.1806,0.1815,0.1822,0.1833,0.1716,0,0,0,0,0,0.1527,0.1545,0.1557,0.1579,0.1591,0.1611,0.1628,0.1647,0.167,0.1689,0.1712,0.1739,0.1764,0.1784,0.1802,0.1834,0.1844,0.1865,0.1872,0.1878,0.1891,0.1934,0.1946,0.1815,0.1815,0.1815,0,0,0.1537,0.1548,0.156,0.1582,0.1601,0.1619,0.1626,0.1661,0.1689,0.1688,0.1746,0.1766,0.1779,0.1822,0.1846,0.183,0.1922,0.1883,0.1888,0.1898,0.1939,0.1952,0.1963,0.1818,0.1817,0.1817,0,0,0.1548,0.1576,0.1589,0.1608,0.1641,0.1651,0.1669,0.1698,0.173,0.1771,0.1787,0.1833,0.1864,0.1887,0.1898,0.1956,0.1959,0.1969,0.2014,0.2056,0.2067,0.2077,0.2107,0.2119,0.1972,0.1972,0.1972,0,0.1563,0.1577,0.1598,0.1615,0.1637,0.1669,0.169,0.172,0.1763,0.1795,0.1802,0.188,0.1894,0.1949,0.1977,0.1973,0.1995,0.1977,0.2065,0.2075,0.2084,0.2113,0.2126,0.1975,0.1975,0.1975,0.1974,0,0.1572,0.1599,0.1612,0.1643,0.1669,0.1698,0.1734,0.178,0.1822,0.1849,0.1928,0.1952,0.2003,0.2016,0.2015,0.2093,0.2087,0.2068,0.204,0.2101,0.2127,0.2139,0.1979,0.1978,0.1977,0.1977,0,0,0.156,0.1608,0.1616,0.164,0.169,0.171,0.1769,0.1823,0.188,0.1931,0.2,0.2052,0.2085,0.2102,0.2117,0.2155,0.2238,0.2149,0.215,0.2175,0.2335,0.2196,0.2196,0.2239,0.2241,0.2243,0.2327,0,0.1563,0.1594,0.1622,0.167,0.169,0.1747,0.1796,0.1859,0.1922,0.2,0.2049,0.2122,0.2112,0.2158,0.2195,0.2235,0.2274,0.2217,0.2277,0.2279,0.2145,0.2206,0.2251,0.2336,0.2339,0.2341,0.2342,0,0.1553,0.1579,0.1617,0.1687,0.1705,0.1747,0.1847,0.1901,0.2009,0.2066,0.2148,0.2193,0.2279,0.2256,0.2351,0.232,0.2341,0.2355,0.2358,0.222,0.2163,0.2264,0.2364,0.2362,0.2361,0.2359,0.2358,0,0.1515,0.1577,0.1611,0.1633,0.1713,0.1763,0.1822,0.1926,0.1991,0.2128,0.2193,0.2286,0.2356,0.2398,0.2438,0.2413,0.2526,0.2486,0.2376,0.2367,0.2442,0.2431,0.255,0.255,0.255,0.2549,0.2549,0,0.1486,0.1521,0.1605,0.1623,0.1689,0.1757,0.185,0.193,0.2052,0.2127,0.2235,0.2301,0.24,0.2468,0.248,0.2468,0.2562,0.2399,0.2383,0.2462,0.2452,0.2451,0.2438,0.2552,0.2552,0.2551,0.2551,0,0.143,0.1483,0.153,0.1627,0.1669,0.172,0.1857,0.1919,0.2051,0.2158,0.221,0.2349,0.2434,0.2503,0.2584,0.2512,0.252,0.2491,0.2588,0.2574,0.2322,0.2312,0.2371,0.2367,0.2364,0.2361,0.2358,0,0.1398,0.1414,0.1523,0.1559,0.161,0.1704,0.1764,0.1906,0.1971,0.2158,0.2193,0.2337,0.2409,0.2411,0.2491,0.2513,0.2479,0.2466,0.2373,0.2328,0.2307,0.2302,0.2296,0.2353,0.2352,0.2351,0.235,0,0.1333,0.1384,0.1423,0.1499,0.1568,0.1636,0.1738,0.1772,0.1928,0.2068,0.2132,0.2181,0.2273,0.2323,0.2367,0.2369,0.2462,0.2428,0.2434,0.2348,0.2306,0.2288,0.2286,0.2338,0.234,0.2341,0.2342,0,0.1291,0.1301,0.1361,0.1419,0.1501,0.1536,0.1603,0.1675,0.1755,0.1953,0.197,0.2114,0.2248,0.2251,0.2286,0.2288,0.2243,0.2156,0.2175,0.2189,0.2089,0.2007,0.1947,0,0,0,0,0,0.1236,0.1235,0.1278,0.1327,0.1403,0.1456,0.1569,0.1637,0.1785,0.1784,0.1873,0.1945,0.2004,0.208,0.2046,0.2204,0.2251,0.2154,0.216,0.2271,0.2285,0.2184,0,0,0,0,0,0,0.1195,0.1227,0.1238,0.1239,0.1261,0.1333,0.1397,0.1498,0.1507,0.1665,0.171,0.1833,0.1922,0.2009,0.2012,0.2035,0.1999,0.2249,0.2244,0.2264,0.2276,0.2287,0.2188,0,0,0,0,0]},{"header":{"parameterUnit":"m.s-1","parameterCategory":2,"la1":30.2991,"la2":30.254,"lo1":-89.0895,"lo2":-89.0444,"dy":0.0017,"dx":0.0017,"nx":28,"ny":28,"refTime":"2024-05-05T21:00:00:Z","depth":"4","parameterNumber":3,"parameterNumberName":"V-component_of_CURRENTS"},"data":[0,0,0,0,0,0,0,0,0,0,0,0,0,0,0,0,0,0,0,0,0,0,0,0,0,0,0,0,0,0,0,0,0,0,0,0,0,0,0,0,0,0,0,0,0,0,0,0,0,0,0,0,0,0,0,0,0,0,0.0019,0.0019,0,-0.0018,-0.0018,-0.0019,-0.0048,-0.0049,-0.0049,-0.0049,-0.0109,-0.011,-0.0112,0,0,0,0,0,0,0,0,0,0,0,0,0,0.004,0.004,0.002,0.0019,0.0019,-0.0018,-0.0018,-0.0019,-0.0048,-0.0049,-0.0049,-0.0049,-0.0108,-0.011,-0.0112,0,0,0,0,0,0,0,0,0,0,0,0,0,0.0019,0.004,0.002,0.0,-0.0002,-0.0018,-0.0018,-0.0019,-0.0048,-0.0049,-0.0049,-0.0049,-0.0108,-0.011,-0.0112,-0.0118,0,0,-0.0118,-0.0119,0,0,0,0,0,0,0,0,0.0021,0.0019,0.0003,0.0002,-0.0001,-0.0028,-0.0033,-0.0053,-0.0048,-0.0032,-0.0049,-0.0049,-0.0083,-0.0087,-0.0094,-0.0121,-0.0124,-0.0118,-0.012,-0.0121,-0.0121,0,0,0,0,0,0,0,0.0022,0.002,0.0004,0.0003,0.0001,-0.0015,-0.0018,-0.0037,-0.0056,-0.0033,-0.0035,-0.0038,-0.0085,-0.0092,-0.0096,-0.0124,-0.0118,-0.012,-0.0122,-0.0122,-0.0164,-0.0164,0,0,0,0,0,0,0.003,0.0021,0.0005,0.0003,0.001,-0.0015,-0.0019,-0.002,-0.0056,-0.0061,-0.0037,-0.0039,-0.0089,-0.0094,-0.0098,-0.0104,-0.0121,-0.0123,-0.0124,-0.0164,-0.0164,-0.0164,0,0,0,0,0,0,0.0031,0.0029,0.0007,0.0012,0.0008,-0.0015,-0.0016,-0.002,-0.0028,-0.0058,-0.0064,-0.004,-0.0089,-0.0095,-0.0113,-0.0107,-0.0123,-0.0125,-0.0164,-0.0164,-0.0164,-0.0118,0,0,0,0,0,0,0.0032,0.003,0.0032,0.0012,0.0008,0.0002,-0.0016,-0.0021,-0.0029,-0.0031,-0.0063,-0.0069,-0.009,-0.011,-0.0115,-0.011,-0.0127,-0.0164,-0.0164,-0.0164,-0.0119,-0.0116,-0.0113,0,0,0,0,0,0.0032,0.0039,0.0032,0.003,0.0012,0.0002,-0.0002,-0.002,-0.0028,-0.0029,-0.0051,-0.0068,-0.0112,-0.0111,-0.0117,-0.0113,-0.0165,-0.0164,-0.0164,-0.0121,-0.0116,-0.0113,0,0,0,0,0,0,0.0049,0.0036,0.0028,0.003,0.0019,-0.0003,-0.0004,-0.0016,-0.0034,-0.0036,-0.0066,-0.0074,-0.0087,-0.0107,-0.0105,-0.0124,-0.0141,-0.0142,-0.0106,-0.0102,-0.0099,-0.0089,-0.0129,0,0,0,0,0,0.0055,0.0056,0.0039,0.0041,0.0038,0.0018,0.0012,0.0001,-0.0017,-0.0025,-0.0048,-0.0072,-0.0091,-0.0101,-0.0122,-0.0131,-0.0158,-0.0133,-0.013,-0.0127,-0.0123,-0.0161,-0.016,-0.0163,-0.0163,-0.0163,0,0,0.0062,0.0055,0.0055,0.0045,0.0035,0.0037,0.0013,0.0009,0.001,-0.0029,-0.0036,-0.0062,-0.0091,-0.0103,-0.011,-0.0117,-0.0139,-0.0126,-0.0123,-0.0122,-0.016,-0.016,-0.016,-0.0162,-0.0162,-0.0162,0,0,0.008,0.0072,0.008,0.0074,0.0063,0.0053,0.0054,0.0035,0.0025,0.0015,-0.0013,-0.0036,-0.0062,-0.0084,-0.0097,-0.009,-0.0122,-0.0094,-0.0069,-0.0105,-0.0105,-0.0105,-0.0135,-0.0138,-0.0091,-0.0091,-0.0091,0,0.009,0.0098,0.008,0.0087,0.0089,0.0064,0.0076,0.0063,0.004,0.0035,0.0019,-0.0026,-0.0053,-0.0069,-0.0067,-0.0082,-0.0105,-0.0079,-0.01,-0.0101,-0.0102,-0.0133,-0.0137,-0.0089,-0.0089,-0.0089,-0.0089,0,0.0113,0.0121,0.0126,0.0128,0.0128,0.0134,0.0118,0.0111,0.0096,0.0081,0.0059,0.0017,-0.0009,-0.0023,-0.0042,-0.0061,-0.0075,-0.0092,-0.0108,-0.0099,-0.0132,-0.0138,-0.0086,-0.0086,-0.0087,-0.0088,0,0,0.0132,0.0141,0.0144,0.0157,0.0152,0.0157,0.0158,0.0154,0.016,0.0124,0.0121,0.0077,0.0051,0.0034,-0.0,-0.0034,-0.0065,-0.0061,-0.0064,-0.0087,-0.014,-0.0139,-0.0145,-0.0085,-0.0086,-0.0086,-0.0158,0,0.0156,0.0183,0.018,0.0211,0.0225,0.021,0.0216,0.0208,0.0195,0.0183,0.0132,0.0117,0.0075,0.0064,0.0022,-0.0041,-0.0078,-0.0044,-0.0149,-0.0152,-0.0148,-0.015,-0.0089,-0.0163,-0.0164,-0.0165,-0.0165,0,0.0179,0.0197,0.0231,0.0257,0.0262,0.0275,0.0287,0.0292,0.0269,0.0255,0.0225,0.0186,0.0135,0.0095,-0.0013,0.0012,-0.0058,-0.0114,-0.0119,-0.0137,-0.016,-0.0175,-0.0176,-0.0175,-0.0174,-0.0174,-0.0173,0,0.0203,0.0233,0.0265,0.0273,0.0293,0.0307,0.032,0.0314,0.0333,0.0306,0.031,0.0237,0.0207,0.0107,-0.0006,-0.001,-0.013,-0.0151,-0.0218,-0.0219,-0.0219,-0.0218,-0.0232,-0.0232,-0.0232,-0.0231,-0.0231,0,0.0228,0.0255,0.028,0.0298,0.0342,0.0344,0.0386,0.0384,0.0393,0.042,0.0354,0.0349,0.0208,0.0125,0.0011,-0.0115,-0.0119,-0.0214,-0.0238,-0.0198,-0.0193,-0.0223,-0.0221,-0.0234,-0.0233,-0.0233,-0.0232,0,0.0247,0.0261,0.0304,0.0337,0.0355,0.0388,0.0444,0.0472,0.0473,0.0504,0.05,0.0433,0.0322,0.0177,0.0014,-0.0081,-0.021,-0.0256,-0.0194,-0.0214,-0.028,-0.0275,-0.0337,-0.0337,-0.0338,-0.0338,-0.0338,0,0.0257,0.0278,0.0336,0.0372,0.0392,0.0443,0.0481,0.0509,0.0547,0.0556,0.0572,0.0485,0.0416,0.0198,0.0032,-0.0185,-0.022,-0.0288,-0.0295,-0.0274,-0.0291,-0.0285,-0.028,-0.0339,-0.0339,-0.0339,-0.034,0,0.0277,0.0296,0.0333,0.0406,0.0458,0.0521,0.058,0.0615,0.0645,0.0649,0.0639,0.0527,0.0399,0.0214,0.0044,-0.0115,-0.0245,-0.0293,-0.0294,-0.0301,-0.0278,-0.0293,-0.0287,-0.0341,-0.0341,-0.0341,-0.0341,0,0.0292,0.0319,0.0369,0.0436,0.0508,0.0578,0.0607,0.0652,0.0689,0.07,0.0694,0.0558,0.048,0.0251,0.0095,-0.0062,-0.0109,-0.0164,-0.0172,-0.0172,-0.0109,-0.0054,-0.0067,0,0,0,0,0,0.0303,0.0335,0.0397,0.0471,0.0546,0.0592,0.0665,0.0687,0.0716,0.0722,0.0715,0.06,0.0379,0.0284,0.0128,0.0061,-0.0155,-0.013,-0.0226,-0.035,-0.0348,-0.0303,0,0,0,0,0,0,0.031,0.0362,0.0393,0.049,0.0548,0.0633,0.0683,0.0704,0.071,0.0716,0.0606,0.0558,0.0342,0.0471,0.0126,0.0077,-0.0006,-0.0231,-0.0235,-0.0351,-0.035,-0.0348,-0.0301,0,0,0,0,0]}]]